Regional Weather Roundup
Issued by NWS

Home | Current Version | Previous Version | Text Only | Print | Product List | Glossary Off
Versions: 1 2 3 4 5 6 7 8 9 10 11 12 13 14 15 16 17 18 19 20 21 22 23 24 25 26 27 28 29 30 31 32 33 34 35 36 37 38 39 40 41 42 43 44 45 46 47 48 49 50

000
ASUS43 KDTX 230301
RWRMI
MICHIGAN HOURLY REGIONAL WEATHER ROUNDUP
NATIONAL WEATHER SERVICE DETROIT/PONTIAC MI
1000 PM EST WED FEB 22 2017

NOTE: "FAIR" INDICATES FEW OR NO CLOUDS BELOW 12,000 FEET WITH NO
SIGNIFICANT WEATHER AND/OR OBSTRUCTION TO VISIBILITY.

MIZ047>049-052>055-059>063-066>070-074>076-081>083-230400-
SOUTHEAST LOWER MICHIGAN

CITY           SKY/WX    TMP DP  RH WIND       PRES   REMARKS
ADRIAN         MOCLDY    56  52  86 S12       29.72F
ALMA           PTCLDY    55  52  88 S13G18    29.62S
ANN ARBOR      CLOUDY    57  54  89 S12       29.71F
BAD AXE        PTCLDY    53  50  87 S9G16     29.64S
CARO           PTCLDY    56  51  82 S10G17    29.63S
DETROIT CITY   PTCLDY    56  54  93 S13       29.72F
DETROIT        MOCLDY    57  54  89 S12       29.72F
FLINT          PTCLDY    56  51  84 S12       29.66F
GROSSE ILE     FOG       44  43  98 S8        29.72F VSB 1/4
HILLSDALE      CLOUDY    55  52  88 S8        29.71S
HOWELL         CLEAR     56  50  79 S12G17    29.68S

CITY           SKY/WX    TMP DP  RH WIND       PRES   REMARKS
JACKSON        CLEAR     57  51  80 S13       29.69S
LAMBERTVILLE   CLOUDY    61  55  80 S7        29.73F
LANSING        CLEAR     56  50  80 S13       29.66S
LAPEER         FAIR      56  51  84 S9        29.67F
MASON          CLEAR     55  52  88 S7        29.67S
MONROE         MOCLDY    58  55  91 S13G21    29.72F
MT. CLEMENS    MOCLDY    52  52 100 S12       29.70F FOG
PONTIAC        MOCLDY    56  51  84 S10       29.68F
PORT HOPE        N/A     56  50  80 S8        29.60F
PORT HURON     PTCLDY    54  52  94 S12       29.70F
TRI CITIES     MOCLDY    55  52  89 S15G22    29.62F
MIDLAND        FAIR      56  49  78 S8        29.60S
TROY           CLEAR     58  53  84 S10G16    29.71F
SAGINAW HB     CLEAR     57  50  77 S17       29.62S
$$
MIZ043>046-050>051-056>058-064>065-071>073-077>080-230400-
SOUTHWEST LOWER MICHIGAN

CITY           SKY/WX    TMP DP  RH WIND       PRES   REMARKS
BATTLE CREEK   CLEAR     56  52  86 S15       29.67F
BENTON HARBOR  CLEAR     59  52  77 S9        29.64R
BIG RAPIDS     CLOUDY    57  51  81 SW8       29.61R
COLDWATER      PTCLDY    56  53  89 S8        29.69S
FREMONT        CLOUDY    56  53  90 S7        29.60R
HOLLAND        CLEAR     57  52  83 S14       29.61S
GRAND RAPIDS   PTCLDY    56  51  84 S16       29.62S
IONIA          FAIR      55  51  85 S14       29.62S
KALAMAZOO      CLEAR     55  50  83 S14       29.67S
LUDINGTON      CLEAR     52  50  92 S14G25    29.57S FOG
MARSHALL       CLEAR     56  53  88 S8        29.67F
MOUNT PLEASANT CLOUDY    56  51  82 S9G17     29.59S
MUSKEGON       PTCLDY    61  53  75 S17G28    29.59R
SOUTH HAVEN    CLEAR     58  54  86 S12       29.64R
$$
MIZ016>042-230400-
NORTHERN LOWER MICHIGAN

CITY           SKY/WX    TMP DP  RH WIND       PRES   REMARKS
ALPENA         CLOUDY    49  47  93 N6        29.59F
BEAVER ISLAND  CLOUDY    40  40 100 CALM      29.58S FOG
BELLAIRE       CLOUDY    46  44  93 CALM      29.59S
CADILLAC       CLOUDY    53  50  92 S6        29.57F
CHARLEVOIX     LGT RAIN  44  44 100 SE3       29.62S VSB 1/4
FRANKFORT      CLOUDY    46  45  97 CALM      29.56F FOG
GAYLORD        LGT RAIN  49  45  86 CALM      29.57F FOG
GRAYLING       FOG       44  43  98 CALM      29.59F VSB 3/4
HARBOR SPRINGS FOG       42  42 100 CALM      29.60R VSB 3/4
HOUGHTON LAKE  MOCLDY    50  48  93 S5        29.59F FOG
MANISTEE       MOCLDY    59  53  80 S14G24    29.54F
OSCODA         CLOUDY    48  46  94 SW5       29.62R FOG
PELLSTON       LGT RAIN  41  39  93 VRB3      29.60R VSB 1/2
ROGERS CITY    DRIZZLE   41  38  91 CALM      29.61F
TRAVERSE CITY  CLOUDY    44  41  89 W3        29.56F
$$
MIZ007>008-015-230400-
EASTERN UPPER MICHIGAN

CITY           SKY/WX    TMP DP  RH WIND       PRES   REMARKS
KINROSS        LGT RAIN  41  39  93 SE5       29.57F VSB 1/4
MACKINAC ISLAN LGT RAIN  41  41 100 SW5       29.57F VSB 1
NEWBERRY       RAIN      39  37  93 W3        29.58R
S. S. MARIE    LGT RAIN  39  38  96 CALM      29.57S VSB 1/2
MUNISING         N/A     35  35 100 CALM      29.61R
$$
MIZ004>006-011>014-085-230400-
CENTRAL UPPER MICHIGAN

CITY           SKY/WX    TMP DP  RH WIND       PRES   REMARKS
MANISTIQUE     DRIZZLE   38  37  97 N3        29.60R
ESCANABA       CLOUDY    41  39  93 NE7       29.58F
MENOMINEE      CLOUDY    40  38  93 E5        29.55F
SAWYER-GWINN   FOG       34  34 100 N3        29.60R VSB 1/4
$$
MIZ001>003-009>011-084-230400-
WESTERN UPPER MICHIGAN

CITY           SKY/WX    TMP DP  RH WIND       PRES   REMARKS
IRON MOUNTAIN  CLOUDY    42  39  89 N6        29.55F FOG
HOUGHTON       FLURRIES  36  28  73 N10       29.65R WCI  28
COPPER HARBOR    N/A     36  32  85 NE10      29.63R WCI  28
IRONWOOD       CLOUDY    34  33  96 NE8       29.63F WCI  27
$$

ABBREVIATIONS USED IN REMARKS
   TC - TEMPERATURE IN CELSIUS
  WCI - WIND CHILL INDEX
   HX - HEAT INDEX
  VSB - VISIBILITY




USA.gov is the U.S. government's official web portal to all federal, state and local government web resources and services.